| time (UTC) | temp F | wind direction | speed knots | gust knots | rain 1hr in | rain 24hr in | rain mn in | humidity % | barometer mb |
| 20260504004527 | 41 | 22 | 1.7 | 3.5 | 0.00 | 0.00 | 0.00 | 70 | 1017.3 |
| 20260504004024 | 40 | 354 | 2.6 | 3.5 | 0.00 | 0.00 | 0.00 | 70 | 1017.2 |
| 20260504003520 | 40 | 346 | 0.9 | 3.5 | 0.00 | 0.00 | 0.00 | 69 | 1017.5 |
| 20260504003017 | 40 | 124 | 0.0 | 1.7 | 0.00 | 0.00 | 0.00 | 71 | 1017.2 |
| 20260504002514 | 42 | 66 | 0.9 | 2.6 | 0.00 | 0.00 | 0.00 | 67 | 1017.2 |
| 20260504002012 | 42 | 24 | 1.7 | 3.5 | 0.00 | 0.00 | 0.00 | 67 | 1017.2 |
| 20260504001509 | 42 | 55 | 0.0 | 1.7 | 0.00 | 0.00 | 0.00 | 67 | 1017.2 |
| 20260504001005 | 43 | 146 | 1.7 | 3.5 | 0.00 | 0.00 | 0.00 | 62 | 1017.2 |
| 20260504000502 | 44 | 315 | 0.0 | 2.6 | 0.00 | 0.00 | 0.00 | 66 | 1017.2 |
| 20260503235959 | 44 | 47 | 1.7 | 2.6 | 0.00 | 0.00 | 0.00 | 57 | 1017.0 |
| 20260503235458 | 44 | 303 | 0.0 | 2.6 | 0.00 | 0.00 | 0.00 | 65 | 1017.0 |
| 20260503234954 | 44 | 101 | 0.0 | 4.3 | 0.00 | 0.00 | 0.00 | 58 | 1017.1 |
| 20260503234452 | 45 | 137 | 0.9 | 2.6 | 0.00 | 0.00 | 0.00 | 57 | 1017.2 |
| 20260503233950 | 47 | 165 | 0.9 | 2.6 | 0.00 | 0.00 | 0.00 | 52 | 1017.2 |
| 20260503233446 | 48 | 121 | 0.0 | 4.3 | 0.00 | 0.00 | 0.00 | 39 | 1017.5 |
| 20260503232942 | 48 | 101 | 1.7 | 7.0 | 0.00 | 0.00 | 0.00 | 41 | 1017.1 |
| 20260503232439 | 49 | 139 | 0.9 | 7.8 | 0.00 | 0.00 | 0.00 | 39 | 1017.1 |
| 20260503231937 | 49 | 184 | 0.0 | 7.8 | 0.00 | 0.00 | 0.00 | 40 | 1017.2 |
| 20260503231435 | 49 | 180 | 0.9 | 2.6 | 0.00 | 0.00 | 0.00 | 38 | 1017.1 |
| 20260503230931 | 49 | 204 | 3.5 | 7.0 | 0.00 | 0.00 | 0.00 | 35 | 1017.2 |
| 20260503230427 | 49 | 95 | 1.7 | 3.5 | 0.00 | 0.00 | 0.00 | 36 | 1017.0 |
| 20260503225925 | 49 | 167 | 0.9 | 6.1 | 0.00 | 0.00 | 0.00 | 42 | 1017.1 |
| 20260503225422 | 51 | 73 | 0.9 | 2.6 | 0.00 | 0.00 | 0.00 | 40 | 1017.0 |
| 20260503224917 | 53 | 182 | 0.9 | 2.6 | 0.00 | 0.00 | 0.00 | 32 | 1017.5 |
| 20260503224415 | 53 | 147 | 0.0 | 9.6 | 0.00 | 0.00 | 0.00 | 35 | 1017.1 |
| 20260503223912 | 55 | 174 | 1.7 | 5.2 | 0.00 | 0.00 | 0.00 | 33 | 1017.5 |
| 20260503223410 | 55 | 225 | 1.7 | 4.3 | 0.00 | 0.00 | 0.00 | 32 | 1016.9 |
| 20260503222910 | 56 | 124 | 2.6 | 3.5 | 0.00 | 0.00 | 0.00 | 31 | 1017.0 |
| 20260503222409 | 54 | 318 | 3.5 | 11.3 | 0.00 | 0.00 | 0.00 | 35 | 1017.1 |
| 20260503221907 | 55 | 110 | 0.0 | 1.7 | 0.00 | 0.00 | 0.00 | 34 | 1017.2 |
| 20260503221405 | 56 | 207 | 3.5 | 5.2 | 0.00 | 0.00 | 0.00 | 32 | 1017.2 |
| 20260503220901 | 57 | 70 | 0.9 | 5.2 | 0.00 | 0.00 | 0.00 | 30 | 1016.9 |
| 20260503220358 | 55 | 162 | 0.9 | 5.2 | 0.00 | 0.00 | 0.00 | 34 | 1016.8 |
| 20260503215855 | 53 | 194 | 6.1 | 11.3 | 0.00 | 0.00 | 0.00 | 34 | 1016.8 |
| 20260503215352 | 54 | 197 | 5.2 | 7.0 | 0.00 | 0.00 | 0.00 | 34 | 1016.7 |
| 20260503214849 | 55 | 210 | 4.3 | 8.7 | 0.00 | 0.00 | 0.00 | 32 | 1016.9 |
| 20260503214347 | 54 | 159 | 1.7 | 6.1 | 0.00 | 0.00 | 0.00 | 34 | 1016.8 |
| 20260503213844 | 54 | 220 | 3.5 | 7.0 | 0.00 | 0.00 | 0.00 | 31 | 1016.8 |
| 20260503213342 | 51 | 280 | 2.6 | 11.3 | 0.00 | 0.00 | 0.00 | 33 | 1016.8 |
| 20260503212838 | 53 | 89 | 2.6 | 4.3 | 0.00 | 0.00 | 0.00 | 32 | 1016.8 |
| 20260503212336 | 51 | 5 | 4.3 | 10.4 | 0.00 | 0.00 | 0.00 | 33 | 1017.0 |
| 20260503211833 | 52 | 320 | 11.3 | 13.0 | 0.00 | 0.00 | 0.00 | 33 | 1016.9 |
| 20260503211330 | 53 | 353 | 2.6 | 5.2 | 0.00 | 0.00 | 0.00 | 30 | 1016.9 |
| 20260503210825 | 54 | 166 | 1.7 | 8.7 | 0.00 | 0.00 | 0.00 | 32 | 1017.0 |
| 20260503210323 | 53 | 37 | 0.9 | 7.0 | 0.00 | 0.00 | 0.00 | 32 | 1017.1 |
| 20260503205817 | 55 | 224 | 3.5 | 7.8 | 0.00 | 0.00 | 0.00 | 30 | 1017.3 |
| 20260503205314 | 51 | 357 | 0.9 | 12.2 | 0.00 | 0.00 | 0.00 | 34 | 1017.3 |
| 20260503204811 | 51 | 78 | 5.2 | 8.7 | 0.00 | 0.00 | 0.00 | 32 | 1017.3 |
| 20260503204309 | 51 | 129 | 4.3 | 12.2 | 0.00 | 0.00 | 0.00 | 36 | 1017.2 |
| 20260503203806 | 51 | 108 | 3.5 | 8.7 | 0.00 | 0.00 | 0.00 | 35 | 1017.3 |
| 20260503203303 | 51 | 20 | 1.7 | 11.3 | 0.00 | 0.00 | 0.00 | 35 | 1017.5 |
| 20260503202800 | 54 | 187 | 2.6 | 15.6 | 0.00 | 0.00 | 0.00 | 35 | 1017.3 |
| 20260503202258 | 54 | 172 | 0.0 | 5.2 | 0.00 | 0.00 | 0.00 | 30 | 1017.6 |
| 20260503201755 | 53 | 199 | 7.8 | 11.3 | 0.00 | 0.00 | 0.00 | 34 | 1017.7 |
| 20260503201253 | 54 | 176 | 2.6 | 13.0 | 0.00 | 0.00 | 0.00 | 36 | 1017.8 |
| 20260503200750 | 54 | 194 | 4.3 | 8.7 | 0.00 | 0.00 | 0.00 | 34 | 1017.7 |
| 20260503200245 | 57 | 150 | 8.7 | 8.7 | 0.00 | 0.00 | 0.00 | 31 | 1017.7 |
| 20260503195743 | 53 | 202 | 3.5 | 10.4 | 0.00 | 0.00 | 0.00 | 32 | 1017.7 |
| 20260503195239 | 55 | 278 | 0.0 | 5.2 | 0.00 | 0.00 | 0.00 | 31 | 1017.8 |
| 20260503194737 | 54 | 162 | 3.5 | 12.2 | 0.00 | 0.00 | 0.00 | 34 | 1017.8 |
| 20260503194232 | 54 | 145 | 1.7 | 6.1 | 0.00 | 0.00 | 0.00 | 32 | 1017.8 |
| 20260503193729 | 53 | 185 | 1.7 | 8.7 | 0.00 | 0.00 | 0.00 | 36 | 1018.0 |
| 20260503193225 | 54 | 308 | 2.6 | 9.6 | 0.00 | 0.00 | 0.00 | 35 | 1018.0 |
| 20260503192721 | 55 | 71 | 1.7 | 13.0 | 0.00 | 0.00 | 0.00 | 36 | 1018.0 |
| 20260503192216 | 53 | 354 | 8.7 | 10.4 | 0.00 | 0.00 | 0.00 | 35 | 1018.0 |
| 20260503191713 | 53 | 18 | 2.6 | 13.9 | 0.00 | 0.00 | 0.00 | 36 | 1018.2 |
| 20260503191211 | 52 | 193 | 2.6 | 7.8 | 0.00 | 0.00 | 0.00 | 34 | 1018.3 |
| 20260503190707 | 49 | 4 | 5.2 | 13.0 | 0.00 | 0.00 | 0.00 | 34 | 1018.4 |
| 20260503190204 | 50 | 346 | 3.5 | 15.6 | 0.00 | 0.00 | 0.00 | 37 | 1018.5 |
| 20260503185701 | 50 | 95 | 5.2 | 8.7 | 0.00 | 0.00 | 0.00 | 34 | 1018.1 |
| 20260503185156 | 52 | 91 | 3.5 | 7.0 | 0.00 | 0.00 | 0.00 | 33 | 1018.3 |
| 20260503184651 | 54 | 156 | 2.6 | 7.0 | 0.00 | 0.00 | 0.00 | 34 | 1018.5 |
| 20260503184148 | 55 | 76 | 0.0 | 2.6 | 0.00 | 0.00 | 0.00 | 35 | 1018.3 |
| 20260503183644 | 55 | 355 | 1.7 | 9.6 | 0.00 | 0.00 | 0.00 | 32 | 1018.4 |
| 20260503183142 | 53 | 210 | 2.6 | 17.4 | 0.00 | 0.00 | 0.00 | 32 | 1018.4 |
| 20260503182640 | 52 | 189 | 8.7 | 20.9 | 0.00 | 0.00 | 0.00 | 35 | 1018.4 |
| 20260503182139 | 48 | 165 | 6.1 | 13.0 | 0.00 | 0.00 | 0.00 | 37 | 1018.3 |
| 20260503181635 | 47 | 10 | 7.8 | 15.6 | 0.00 | 0.00 | 0.00 | 37 | 1018.7 |
| 20260503181131 | 48 | 48 | 9.6 | 13.0 | 0.00 | 0.00 | 0.00 | 36 | 1018.9 |
| 20260503180628 | 47 | 117 | 5.2 | 11.3 | 0.00 | 0.00 | 0.00 | 35 | 1018.8 |
| 20260503180126 | 51 | 345 | 11.3 | 15.6 | 0.00 | 0.00 | 0.00 | 33 | 1019.1 |
| 20260503175623 | 51 | 352 | 1.7 | 7.8 | 0.00 | 0.00 | 0.00 | 37 | 1019.0 |
| 20260503175120 | 50 | 340 | 5.2 | 7.8 | 0.00 | 0.00 | 0.00 | 36 | 1018.9 |
| 20260503174616 | 48 | 92 | 7.0 | 10.4 | 0.00 | 0.00 | 0.00 | 35 | 1018.8 |
| 20260503174114 | 47 | 78 | 10.4 | 14.8 | 0.00 | 0.00 | 0.00 | 37 | 1018.8 |
| 20260503173609 | 50 | 181 | 1.7 | 7.0 | 0.00 | 0.00 | 0.00 | 43 | 1018.7 |
| 20260503173105 | 45 | 62 | 6.1 | 13.0 | 0.00 | 0.00 | 0.00 | 36 | 1018.8 |
| 20260503172602 | 47 | 322 | 6.1 | 20.9 | 0.00 | 0.00 | 0.00 | 37 | 1019.1 |
| 20260503172100 | 47 | 117 | 5.2 | 8.7 | 0.00 | 0.00 | 0.00 | 38 | 1018.9 |
| 20260503171556 | 46 | 339 | 13.9 | 20.9 | 0.00 | 0.00 | 0.00 | 40 | 1018.8 |
| 20260503171054 | 46 | 341 | 8.7 | 13.9 | 0.00 | 0.00 | 0.00 | 40 | 1019.1 |
| 20260503170549 | 44 | 18 | 12.2 | 13.9 | 0.00 | 0.00 | 0.00 | 39 | 1019.2 |
| 20260503150942 | 47 | 150 | 3.5 | 9.6 | 0.00 | 0.00 | 0.00 | 46 | 1020.0 |
| 20260503150439 | 42 | 108 | 1.7 | 13.0 | 0.00 | 0.00 | 0.00 | 49 | 1020.0 |
| 20260503131332 | 37 | 129 | 7.0 | 12.2 | 0.00 | 0.00 | 0.00 | 54 | 1019.2 |
| 20260503130829 | 36 | 172 | 1.7 | 20.9 | 0.00 | 0.00 | 0.00 | 58 | 1019.1 |
| 20260503130327 | 39 | 52 | 4.3 | 6.1 | 0.00 | 0.00 | 0.00 | 57 | 1019.3 |
| 20260503110720 | 31 | 120 | 2.6 | 6.1 | 0.00 | 0.00 | 0.00 | 75 | 1017.9 |
| 20260503110217 | 31 | 40 | 7.8 | 8.7 | 0.00 | 0.00 | 0.00 | 75 | 1018.1 |
| 20260503100138 | 31 | 10 | 4.3 | 12.2 | 0.00 | 0.00 | 0.00 | 77 | 1017.3 |
| 20260503081532 | 32 | 355 | 1.7 | 7.0 | 0.00 | 0.00 | 0.00 | 74 | 1016.9 |
| 20260503081030 | 32 | 80 | 5.2 | 12.2 | 0.00 | 0.00 | 0.00 | 75 | 1016.6 |
| 20260503080526 | 32 | 110 | 7.8 | 13.0 | 0.00 | 0.00 | 0.00 | 75 | 1016.6 |
| 20260503072459 | 33 | 62 | 2.6 | 7.8 | 0.00 | 0.00 | 0.00 | 73 | 1016.1 |
| 20260503071956 | 33 | 44 | 2.6 | 4.3 | 0.00 | 0.00 | 0.00 | 74 | 1015.9 |
| 20260503071453 | 33 | 137 | 2.6 | 5.2 | 0.00 | 0.00 | 0.00 | 73 | 1016.0 |
| 20260503070949 | 33 | 107 | 0.9 | 10.4 | 0.00 | 0.00 | 0.00 | 72 | 1016.3 |
| 20260503070446 | 33 | 92 | 0.9 | 2.6 | 0.00 | 0.00 | 0.00 | 73 | 1016.0 |
| 20260503054900 | 34 | 89 | 4.3 | 6.1 | 0.00 | 0.00 | 0.00 | 75 | 1016.1 |
| 20260503054356 | 34 | 342 | 1.7 | 9.6 | 0.00 | 0.00 | 0.00 | 75 | 1016.0 |
| 20260503053854 | 34 | 63 | 7.8 | 13.0 | 0.00 | 0.00 | 0.00 | 75 | 1015.9 |
| 20260503053352 | 34 | 39 | 1.7 | 12.2 | 0.00 | 0.00 | 0.00 | 75 | 1016.1 |
| 20260503052848 | 34 | 112 | 10.4 | 13.0 | 0.00 | 0.00 | 0.00 | 76 | 1016.1 |
| 20260503052345 | 34 | 114 | 0.9 | 7.8 | 0.00 | 0.00 | 0.00 | 76 | 1016.0 |
| 20260503051842 | 34 | 119 | 4.3 | 7.0 | 0.00 | 0.00 | 0.00 | 76 | 1015.9 |
| 20260503051338 | 34 | 148 | 0.9 | 4.3 | 0.00 | 0.00 | 0.00 | 76 | 1015.9 |
| 20260503050835 | 35 | 72 | 3.5 | 8.7 | 0.00 | 0.00 | 0.00 | 75 | 1015.9 |
| 20260503050331 | 35 | 49 | 2.6 | 2.6 | 0.00 | 0.00 | 0.00 | 75 | 1016.0 |
| 20260503045829 | 35 | 115 | 3.5 | 14.8 | 0.00 | 0.00 | 0.00 | 74 | 1016.0 |
| 20260503045327 | 35 | 37 | 1.7 | 8.7 | 0.00 | 0.00 | 0.00 | 74 | 1016.0 |
| 20260503044823 | 35 | 109 | 12.2 | 12.2 | 0.00 | 0.00 | 0.00 | 74 | 1015.9 |
| 20260503044320 | 36 | 112 | 8.7 | 9.6 | 0.00 | 0.00 | 0.00 | 75 | 1015.7 |
| 20260503043817 | 36 | 91 | 3.5 | 7.8 | 0.00 | 0.00 | 0.00 | 74 | 1015.8 |
| 20260503043314 | 35 | 167 | 2.6 | 9.6 | 0.00 | 0.00 | 0.00 | 76 | 1016.1 |
| 20260503042810 | 36 | 84 | 3.5 | 6.1 | 0.00 | 0.00 | 0.00 | 75 | 1015.9 |
| 20260503042307 | 36 | 8 | 2.6 | 4.3 | 0.00 | 0.00 | 0.00 | 75 | 1016.0 |
| 20260503041803 | 36 | 349 | 5.2 | 6.1 | 0.00 | 0.00 | 0.00 | 74 | 1016.0 |
| 20260503041300 | 36 | 13 | 2.6 | 3.5 | 0.00 | 0.00 | 0.00 | 73 | 1016.0 |
| 20260503040758 | 36 | 77 | 2.6 | 3.5 | 0.00 | 0.00 | 0.00 | 75 | 1015.9 |
| 20260503040255 | 36 | 91 | 3.5 | 5.2 | 0.00 | 0.00 | 0.00 | 73 | 1016.4 |
| 20260503035752 | 36 | 88 | 2.6 | 5.2 | 0.00 | 0.00 | 0.00 | 75 | 1016.0 |
| 20260503035249 | 36 | 59 | 2.6 | 4.3 | 0.00 | 0.00 | 0.00 | 73 | 1016.3 |
| 20260503034746 | 36 | 64 | 2.6 | 5.2 | 0.00 | 0.00 | 0.00 | 73 | 1016.1 |
| 20260503034243 | 36 | 84 | 1.7 | 4.3 | 0.00 | 0.00 | 0.00 | 74 | 1016.1 |
| 20260503033741 | 36 | 14 | 5.2 | 7.0 | 0.00 | 0.00 | 0.00 | 74 | 1016.1 |
| 20260503033238 | 37 | 107 | 5.2 | 7.8 | 0.00 | 0.00 | 0.00 | 74 | 1016.1 |
| 20260503032736 | 36 | 120 | 2.6 | 4.3 | 0.00 | 0.00 | 0.00 | 73 | 1016.1 |
| 20260503032235 | 37 | 1 | 1.7 | 4.3 | 0.00 | 0.00 | 0.00 | 72 | 1016.1 |
| 20260503031732 | 37 | 330 | 1.7 | 4.3 | 0.00 | 0.00 | 0.00 | 71 | 1016.1 |
| 20260503031230 | 37 | 112 | 3.5 | 7.0 | 0.00 | 0.00 | 0.00 | 70 | 1016.0 |
| 20260503030725 | 37 | 341 | 1.7 | 3.5 | 0.00 | 0.00 | 0.00 | 70 | 1016.3 |
| 20260503030222 | 37 | 50 | 2.6 | 4.3 | 0.00 | 0.00 | 0.00 | 69 | 1016.0 |
| 20260503025719 | 37 | 181 | 1.7 | 4.3 | 0.00 | 0.00 | 0.00 | 69 | 1016.4 |
| 20260503025217 | 37 | 99 | 2.6 | 3.5 | 0.00 | 0.00 | 0.00 | 70 | 1016.6 |
| 20260503024713 | 37 | 32 | 0.9 | 2.6 | 0.00 | 0.00 | 0.00 | 70 | 1016.4 |
| 20260503024211 | 37 | 115 | 2.6 | 3.5 | 0.00 | 0.00 | 0.00 | 68 | 1016.4 |
| 20260503023707 | 37 | 91 | 1.7 | 6.1 | 0.00 | 0.00 | 0.00 | 67 | 1016.5 |
| 20260503023203 | 37 | 37 | 0.9 | 6.1 | 0.00 | 0.00 | 0.00 | 66 | 1016.3 |
| 20260503022659 | 38 | 217 | 2.6 | 5.2 | 0.00 | 0.00 | 0.00 | 66 | 1016.4 |
| 20260503022159 | 37 | 24 | 2.6 | 3.5 | 0.00 | 0.00 | 0.00 | 67 | 1016.4 |
| 20260503021656 | 37 | 302 | 2.6 | 6.1 | 0.00 | 0.00 | 0.00 | 67 | 1016.3 |
| 20260503021153 | 37 | 30 | 0.9 | 4.3 | 0.00 | 0.00 | 0.00 | 67 | 1015.9 |
| 20260503020650 | 37 | 89 | 0.0 | 3.5 | 0.00 | 0.00 | 0.00 | 69 | 1016.0 |
| 20260503020147 | 36 | 92 | 1.7 | 2.6 | 0.00 | 0.00 | 0.00 | 73 | 1016.3 |
| 20260503015644 | 36 | 1 | 0.9 | 3.5 | 0.00 | 0.00 | 0.00 | 76 | 1016.0 |
| 20260503015141 | 36 | 60 | 1.7 | 3.5 | 0.00 | 0.00 | 0.00 | 77 | 1016.0 |
| 20260503014637 | 35 | 69 | 0.9 | 2.6 | 0.00 | 0.00 | 0.00 | 74 | 1016.1 |
| 20260503014135 | 35 | 73 | 0.0 | 2.6 | 0.00 | 0.00 | 0.00 | 79 | 1016.3 |
| 20260503013632 | 35 | 85 | 0.9 | 1.7 | 0.00 | 0.00 | 0.00 | 78 | 1015.8 |
| 20260503013130 | 35 | 77 | 0.0 | 2.6 | 0.00 | 0.00 | 0.00 | 78 | 1016.3 |
| 20260503012627 | 35 | 142 | 0.9 | 2.6 | 0.00 | 0.00 | 0.00 | 75 | 1016.0 |
| 20260503012123 | 35 | 80 | 1.7 | 2.6 | 0.00 | 0.00 | 0.00 | 77 | 1015.8 |
| 20260503011620 | 35 | 1 | 0.9 | 2.6 | 0.00 | 0.00 | 0.00 | 77 | 1015.9 |
| 20260503011117 | 35 | 110 | 0.9 | 2.6 | 0.00 | 0.00 | 0.00 | 76 | 1015.9 |
| 20260503010613 | 35 | 102 | 0.0 | 1.7 | 0.00 | 0.00 | 0.00 | 73 | 1015.7 |
| 20260503010111 | 36 | 156 | 1.7 | 3.5 | 0.00 | 0.00 | 0.00 | 72 | 1015.7 |
| 20260503005608 | 37 | 105 | 1.7 | 2.6 | 0.00 | 0.00 | 0.00 | 65 | 1015.7 |
| 20260503005105 | 36 | 165 | 0.0 | 3.5 | 0.00 | 0.00 | 0.00 | 69 | 1015.6 |